Location: Stara Lesna
(49.1528°N, 20.2911°E)
Time: 02:56:22
(UTC+02:00)

ERS-2 - Pass Details

Date: 13 July 2020
Orbit: 494 x 498 km, 98.5° (Epoch: 11 August)

Event Time Altitude Azimuth Distance (km) Brightness Sun altitude
Rises 03:16:18 0° 140° (SE) 2,572 5.6 -11.5°
Reaches altitude 10° 03:18:30 10° 130° (SE) 1,694 4.8 -11.2°
Maximum altitude 03:21:45 32° 67° (ENE) 881 4.0 -10.9°
Drops below altitude 10° 03:25:02 10° 3° (N) 1,705 5.7 -10.6°
Sets 03:27:15 0° 354° (N) 2,592 6.5 -10.4°
